Regional Weather Roundup
Issued by NWS Charleston, WV

Home | Current Version | Previous Version | Text Only | Print | Product List | Glossary On
Versions: 1 2 3 4 5 6 7 8 9 10 11 12 13 14 15 16 17 18 19 20 21 22 23 24 25 26 27 28 29 30 31 32 33 34 35 36 37 38 39 40 41 42 43 44 45 46 47 48 49 50
000
ASUS41 KRLX 220610
RWRRLX
West Virginia Regional Weather Roundup
National Weather Service Charleston WV
100 AM EST MON JAN 22 2018

Note: "fair" indicates few or no clouds below 12,000 feet with no
significant weather and/or obstructions to visibility.

WVZ003-220700-
Northern Panhandle of West Virginia

CITY           SKY/WX    TMP DP  RH WIND       PRES   REMARKS
WHEELING       CLOUDY    48  44  86 S6        30.06F
$$

WVZ009-220700-
Northwest West Virginia

CITY           SKY/WX    TMP DP  RH WIND       PRES   REMARKS
PARKERSBURG    CLOUDY    49  44  83 SE3       30.09F
$$

WVZ006-220700-
Western West Virginia

CITY           SKY/WX    TMP DP  RH WIND       PRES   REMARKS
HUNTINGTON     CLOUDY    56  43  61 S5        30.05F
$$

WVZ015-220700-
West Central West Virginia

CITY           SKY/WX    TMP DP  RH WIND       PRES   REMARKS
CHARLESTON     CLOUDY    52  45  77 CALM      30.08F
$$

WVZ022-031-220700-
North Central West Virginia

CITY           SKY/WX    TMP DP  RH WIND       PRES   REMARKS
CLARKSBURG     CLOUDY    53  44  71 SE3       30.09F
MORGANTOWN     CLOUDY    51  44  77 CALM      30.09F
$$

WVZ025-035-042-045-220700-
Southern West Virginia

CITY           SKY/WX    TMP DP  RH WIND       PRES   REMARKS
BECKLEY        CLOUDY    50  41  71 SE5       30.14F
LOGAN          CLOUDY    55  43  62 S7        30.10F
BLUEFIELD      CLOUDY    52  39  61 SW5       30.16F
LEWISBURG      CLOUDY    40  39  99 N3        30.17F FOG
$$

WVZ047-220700-
Northern Mountains of West Virginia

CITY           SKY/WX    TMP DP  RH WIND       PRES   REMARKS
ELKINS         CLOUDY    47  43  86 CALM      30.12F
$$

WVZ052-220700-
Eastern Panhandle of West Virginia

CITY           SKY/WX    TMP DP  RH WIND       PRES   REMARKS
MARTINSBURG    CLOUDY    53  44  71 SW7       30.09F
PETERSBURG     MOCLDY    47  41  82 CALM      30.12S
$$



USA.gov is the U.S. government's official web portal to all federal, state and local government web resources and services.